Location: Ash Shall?l al Awwal
(24.0167°N, 32.8667°E)
Time: 10:03:28
(UTC+00:00)

ATLAS CENTAUR R/B - Pass Details

Date: 02 March 2021
Orbit: 475 x 670 km, 64.7° (Epoch: 30 March)

Event Time Altitude Azimuth Distance (km) Brightness Sun altitude
Rises 16:34:38 0° 217° (SW) 2,567 5.4 -10.6°
Reaches altitude 10° 16:36:53 10° 224° (SW) 1,667 4.5 -11.1°
Maximum altitude 16:40:25 43° 297° (WNW) 677 2.3 -11.9°
Drops below altitude 10° 16:43:53 10° 10° (N) 1,639 3.6 -12.7°
Sets 16:46:05 0° 17° (NNE) 2,518 4.5 -13.2°
